AFR601 SOCA-TFFF

Flight info

Callsign AFR601
Flight time 1h 56m
Altitude 38000
Route REKIM1A REKIM UN674 BUXEX UA555 BGI A555 BORUS BORUS2V
Aircraft A343/H-SDE2E3FGHIJ4J5M1RWXY/LB1D1

Departure

Time 2026-04-29 19:17
Airport Cayenne – Félix Eboué Airport (SOCA)

Arrival

Time 2026-04-29 21:13
Airport Martinique Aimé Césaire International Airport (TFFF)
Time Latitude Longitude Altitude Speed Heading
2026-04-29 18:44 4.82178 -52.36306 60 ft 0 kts 335°
2026-04-29 19:08 4.82177 -52.36305 33 ft 2 kts 335°
2026-04-29 19:08 4.82155 -52.36294 32 ft 4 kts 326°
2026-04-29 19:08 4.82134 -52.36278 30 ft 4 kts 310°
2026-04-29 19:09 4.82121 -52.36256 31 ft 4 kts 280°
2026-04-29 19:09 4.82122 -52.36236 29 ft 1 kts 243°
2026-04-29 19:09 4.82124 -52.36232 30 ft 0 kts 243°
2026-04-29 19:11 4.82122 -52.36236 33 ft 2 kts 243°
2026-04-29 19:11 4.82104 -52.36252 33 ft 4 kts 210°
2026-04-29 19:11 4.82067 -52.36252 33 ft 7 kts 168°
2026-04-29 19:12 4.82013 -52.36231 33 ft 10 kts 158°
2026-04-29 19:12 4.81948 -52.36247 33 ft 11 kts 225°
2026-04-29 19:12 4.81906 -52.36326 33 ft 15 kts 245°
2026-04-29 19:12 4.81891 -52.36358 33 ft 16 kts 245°
2026-04-29 19:13 4.81804 -52.36549 32 ft 21 kts 245°
2026-04-29 19:13 4.81740 -52.36688 32 ft 23 kts 245°
2026-04-29 19:13 4.81671 -52.36838 32 ft 24 kts 245°
2026-04-29 19:13 4.81601 -52.36990 32 ft 24 kts 245°
2026-04-29 19:14 4.81530 -52.37143 31 ft 24 kts 245°
2026-04-29 19:14 4.81460 -52.37293 31 ft 20 kts 245°
2026-04-29 19:14 4.81450 -52.37362 31 ft 7 kts 294°
2026-04-29 19:14 4.81456 -52.37405 31 ft 4 kts 245°
2026-04-29 19:15 4.81431 -52.37417 31 ft 4 kts 189°
2026-04-29 19:15 4.81410 -52.37408 31 ft 1 kts 143°
2026-04-29 19:15 4.81406 -52.37403 31 ft 1 kts 131°
2026-04-29 19:15 4.81402 -52.37388 31 ft 2 kts 100°
2026-04-29 19:16 4.81407 -52.37371 31 ft 3 kts 64°
2026-04-29 19:16 4.81421 -52.37360 31 ft 3 kts 36°
2026-04-29 19:16 4.81430 -52.37351 31 ft 3 kts 46°
2026-04-29 19:16 4.81485 -52.37240 31 ft 36 kts 65°
2026-04-29 19:17 4.81592 -52.37005 32 ft 73 kts 65°
2026-04-29 19:17 4.81878 -52.36386 33 ft 119 kts 65°
2026-04-29 19:17 4.82274 -52.35536 243 ft 136 kts 66°
2026-04-29 19:17 4.82651 -52.34690 699 ft 138 kts 70°
2026-04-29 19:18 4.82860 -52.33716 1002 ft 150 kts 75°
2026-04-29 19:18 4.83030 -52.33014 1295 ft 156 kts 76°
2026-04-29 19:18 4.83338 -52.31492 1801 ft 182 kts 77°
2026-04-29 19:18 4.83645 -52.30196 2220 ft 198 kts 74°
2026-04-29 19:19 4.84024 -52.28785 2574 ft 223 kts 74°
2026-04-29 19:19 4.84468 -52.27218 3093 ft 241 kts 73°
2026-04-29 19:19 4.84947 -52.25580 3844 ft 247 kts 73°
2026-04-29 19:19 4.85614 -52.23969 4623 ft 253 kts 59°
2026-04-29 19:20 4.86798 -52.22645 5209 ft 259 kts 37°
2026-04-29 19:20 4.88427 -52.21878 5787 ft 268 kts 15°
2026-04-29 19:20 4.90317 -52.21715 6368 ft 276 kts
2026-04-29 19:20 4.92248 -52.21933 6918 ft 283 kts 348°
2026-04-29 19:21 4.94075 -52.22734 7510 ft 289 kts 329°
2026-04-29 19:21 4.95713 -52.23925 8107 ft 294 kts 321°
2026-04-29 19:21 4.97247 -52.25299 8758 ft 296 kts 316°
2026-04-29 19:21 4.98719 -52.26758 9424 ft 299 kts 315°
2026-04-29 19:22 5.00182 -52.28261 9950 ft 304 kts 314°
2026-04-29 19:22 5.01697 -52.29819 10279 ft 319 kts 315°
2026-04-29 19:22 5.03292 -52.31435 10631 ft 333 kts 315°
2026-04-29 19:22 5.04951 -52.33088 10909 ft 347 kts 316°
2026-04-29 19:23 5.06707 -52.34818 11208 ft 360 kts 316°
2026-04-29 19:23 5.08523 -52.36594 11517 ft 369 kts 316°
2026-04-29 19:23 5.10375 -52.38402 11998 ft 373 kts 316°
2026-04-29 19:23 5.12245 -52.40225 12461 ft 378 kts 316°
2026-04-29 19:24 5.14135 -52.42069 12972 ft 380 kts 316°
2026-04-29 19:24 5.16044 -52.43932 13463 ft 383 kts 316°
2026-04-29 19:24 5.17962 -52.45807 13871 ft 387 kts 317°
2026-04-29 19:24 5.19884 -52.47686 14249 ft 390 kts 316°
2026-04-29 19:25 5.21834 -52.49593 14659 ft 393 kts 317°
2026-04-29 19:25 5.23798 -52.51514 15060 ft 396 kts 317°
2026-04-29 19:25 5.25782 -52.53455 15424 ft 400 kts 317°
2026-04-29 19:25 5.27790 -52.55419 15806 ft 404 kts 317°
2026-04-29 19:26 5.29815 -52.57400 16182 ft 407 kts 317°
2026-04-29 19:26 5.31857 -52.59398 16570 ft 410 kts 317°
2026-04-29 19:26 5.33885 -52.61382 16935 ft 414 kts 317°
2026-04-29 19:26 5.35959 -52.63412 17334 ft 417 kts 317°
2026-04-29 19:27 5.38049 -52.65458 17729 ft 420 kts 317°
2026-04-29 19:27 5.40151 -52.67515 18115 ft 424 kts 317°
2026-04-29 19:27 5.42267 -52.69586 18462 ft 427 kts 317°
2026-04-29 19:27 5.44402 -52.71677 18810 ft 429 kts 317°
2026-04-29 19:28 5.46546 -52.73776 19178 ft 431 kts 317°
2026-04-29 19:28 5.48672 -52.75858 19516 ft 434 kts 317°
2026-04-29 19:28 5.50835 -52.77977 19877 ft 436 kts 317°
2026-04-29 19:28 5.53018 -52.80115 20218 ft 438 kts 317°
2026-04-29 19:29 5.55207 -52.82259 20576 ft 441 kts 317°
2026-04-29 19:29 5.57407 -52.84415 20922 ft 443 kts 317°
2026-04-29 19:29 5.59626 -52.86588 21264 ft 445 kts 317°
2026-04-29 19:29 5.61854 -52.88772 21608 ft 448 kts 317°
2026-04-29 19:30 5.64060 -52.90934 21938 ft 450 kts 317°
2026-04-29 19:30 5.66306 -52.93135 22250 ft 452 kts 317°
2026-04-29 19:30 5.68570 -52.95354 22583 ft 455 kts 317°
2026-04-29 19:30 5.70837 -52.97576 22910 ft 457 kts 317°
2026-04-29 19:31 5.73118 -52.99813 23226 ft 459 kts 317°
2026-04-29 19:31 5.75408 -53.02058 23536 ft 461 kts 317°
2026-04-29 19:31 5.77715 -53.04320 23799 ft 463 kts 317°
2026-04-29 19:31 5.80025 -53.06587 24102 ft 463 kts 317°
2026-04-29 19:32 5.82310 -53.08828 24405 ft 464 kts 316°
2026-04-29 19:32 5.84625 -53.11100 24715 ft 465 kts 316°
2026-04-29 19:32 5.86948 -53.13379 25033 ft 465 kts 316°
2026-04-29 19:32 5.89239 -53.15627 25362 ft 466 kts 316°
2026-04-29 19:33 5.91566 -53.17911 25649 ft 467 kts 316°
2026-04-29 19:33 5.93894 -53.20196 25972 ft 468 kts 316°
2026-04-29 19:33 5.96233 -53.22492 26247 ft 470 kts 316°
2026-04-29 19:33 5.98574 -53.24791 26544 ft 472 kts 316°
2026-04-29 19:34 6.00934 -53.27107 26829 ft 473 kts 316°
2026-04-29 19:34 6.03287 -53.29418 27109 ft 475 kts 316°
2026-04-29 19:34 6.05631 -53.31720 27352 ft 478 kts 316°
2026-04-29 19:34 6.08017 -53.34064 27653 ft 478 kts 316°
2026-04-29 19:35 6.10393 -53.36398 28134 ft 475 kts 316°
2026-04-29 19:35 6.12763 -53.38727 28414 ft 477 kts 316°
2026-04-29 19:35 6.15131 -53.41054 28762 ft 476 kts 315°
2026-04-29 19:35 6.17496 -53.43378 29094 ft 477 kts 315°
2026-04-29 19:36 6.19871 -53.45713 29371 ft 478 kts 315°
2026-04-29 19:36 6.22253 -53.48055 29671 ft 479 kts 315°
2026-04-29 19:36 6.24637 -53.50398 29992 ft 479 kts 315°
2026-04-29 19:36 6.27020 -53.52741 30245 ft 480 kts 315°
2026-04-29 19:37 6.29377 -53.55060 30489 ft 481 kts 315°
2026-04-29 19:37 6.31001 -53.56656 30612 ft 483 kts 315°
2026-04-29 19:37 6.34183 -53.59786 30965 ft 483 kts 315°
2026-04-29 19:37 6.36584 -53.62149 31263 ft 482 kts 315°
2026-04-29 19:38 6.38978 -53.64504 31565 ft 482 kts 315°
2026-04-29 19:38 6.41369 -53.66858 32105 ft 475 kts 315°
2026-04-29 19:38 6.43724 -53.69176 32503 ft 473 kts 316°
2026-04-29 19:38 6.46038 -53.71454 32900 ft 469 kts 316°
2026-04-29 19:39 6.48364 -53.73745 33322 ft 466 kts 316°
2026-04-29 19:39 6.50683 -53.76027 33533 ft 467 kts 316°
2026-04-29 19:39 6.53006 -53.78315 33727 ft 468 kts 316°
2026-04-29 19:39 6.55333 -53.80607 34059 ft 466 kts 316°
2026-04-29 19:40 6.57651 -53.82891 34275 ft 466 kts 316°
2026-04-29 19:40 6.59968 -53.85173 34550 ft 464 kts 316°
2026-04-29 19:40 6.62271 -53.87443 34855 ft 462 kts 316°
2026-04-29 19:40 6.64560 -53.89699 35120 ft 460 kts 315°
2026-04-29 19:41 6.66819 -53.91924 35381 ft 459 kts 315°
2026-04-29 19:41 6.69096 -53.94169 35649 ft 457 kts 315°
2026-04-29 19:41 6.71371 -53.96412 35913 ft 455 kts 315°
2026-04-29 19:41 6.73632 -53.98642 36174 ft 453 kts 315°
2026-04-29 19:42 6.75885 -54.00858 36438 ft 451 kts 316°
2026-04-29 19:42 6.77416 -54.02273 36624 ft 450 kts 318°
2026-04-29 19:42 6.80608 -54.04985 36977 ft 447 kts 320°
2026-04-29 19:42 6.83021 -54.06956 37224 ft 445 kts 320°
2026-04-29 19:43 6.85392 -54.08892 37443 ft 444 kts 320°
2026-04-29 19:43 6.87778 -54.10858 37671 ft 443 kts 320°
2026-04-29 19:43 6.90146 -54.12831 37860 ft 442 kts 319°
2026-04-29 19:44 6.94883 -54.16826 37878 ft 442 kts 319°
2026-04-29 19:44 6.99592 -54.20822 37879 ft 442 kts 319°
2026-04-29 19:45 7.04288 -54.24810 37879 ft 442 kts 319°
2026-04-29 19:45 7.08963 -54.28777 37878 ft 441 kts 319°
2026-04-29 19:46 7.13658 -54.32761 37875 ft 441 kts 319°
2026-04-29 19:46 7.18358 -54.36750 37882 ft 441 kts 319°
2026-04-29 19:47 7.23030 -54.40716 37883 ft 441 kts 319°
2026-04-29 19:47 7.27725 -54.44703 37878 ft 441 kts 319°
2026-04-29 19:48 7.32425 -54.48696 37885 ft 441 kts 319°
2026-04-29 19:48 7.37117 -54.52682 37883 ft 440 kts 320°
2026-04-29 19:49 7.41770 -54.56637 37885 ft 440 kts 320°
2026-04-29 19:49 7.46453 -54.60619 37880 ft 440 kts 320°
2026-04-29 19:50 7.51159 -54.64621 37883 ft 444 kts 320°
2026-04-29 19:50 7.55895 -54.68649 37882 ft 451 kts 320°
2026-04-29 19:51 7.60733 -54.72766 37889 ft 458 kts 320°
2026-04-29 19:51 7.65629 -54.76933 37887 ft 461 kts 320°
2026-04-29 19:52 7.70528 -54.81104 37886 ft 460 kts 320°
2026-04-29 19:52 7.75407 -54.85260 37883 ft 459 kts 320°
2026-04-29 19:53 7.80280 -54.89412 37881 ft 458 kts 320°
2026-04-29 19:53 7.85146 -54.93559 37882 ft 457 kts 320°
2026-04-29 19:54 7.92416 -54.99757 37882 ft 457 kts 320°
2026-04-29 19:54 7.97270 -55.03898 37882 ft 456 kts 320°
2026-04-29 19:55 8.02080 -55.08002 37884 ft 455 kts 320°
2026-04-29 19:55 8.06921 -55.12134 37886 ft 455 kts 320°
2026-04-29 19:56 8.11758 -55.16264 37895 ft 454 kts 320°
2026-04-29 19:56 8.16551 -55.20356 37886 ft 454 kts 320°
2026-04-29 19:57 8.20563 -55.23784 37888 ft 454 kts 320°
2026-04-29 19:57 8.26201 -55.28603 37891 ft 453 kts 320°
2026-04-29 19:58 8.31013 -55.32716 37886 ft 452 kts 320°
2026-04-29 19:58 8.35788 -55.36800 37891 ft 452 kts 320°
2026-04-29 19:59 8.40596 -55.40912 37889 ft 452 kts 320°
2026-04-29 19:59 8.45399 -55.45023 37893 ft 452 kts 320°
2026-04-29 20:00 8.50201 -55.49133 37893 ft 451 kts 320°
2026-04-29 20:00 8.54961 -55.53210 37893 ft 451 kts 320°
2026-04-29 20:01 8.58943 -55.56621 37891 ft 450 kts 320°
2026-04-29 20:01 8.64507 -55.61388 37888 ft 449 kts 320°
2026-04-29 20:02 8.68474 -55.64789 37891 ft 449 kts 320°
2026-04-29 20:02 8.72441 -55.68190 37888 ft 449 kts 320°
2026-04-29 20:03 8.78020 -55.72976 37897 ft 449 kts 320°
2026-04-29 20:03 8.82768 -55.77050 37885 ft 449 kts 320°
2026-04-29 20:04 8.87547 -55.81151 37894 ft 449 kts 320°
2026-04-29 20:04 8.92292 -55.85226 37889 ft 449 kts 320°
2026-04-29 20:05 8.97067 -55.89328 37886 ft 449 kts 320°
2026-04-29 20:05 9.01840 -55.93429 37891 ft 449 kts 320°
2026-04-29 20:06 9.06576 -55.97500 37893 ft 449 kts 320°
2026-04-29 20:06 9.11354 -56.01611 37885 ft 449 kts 320°
2026-04-29 20:07 9.16122 -56.05712 37892 ft 449 kts 320°
2026-04-29 20:07 9.20856 -56.09786 37896 ft 449 kts 320°
2026-04-29 20:08 9.24852 -56.13225 37894 ft 449 kts 320°
2026-04-29 20:08 9.30390 -56.17996 37896 ft 449 kts 320°
2026-04-29 20:09 9.35163 -56.22108 37894 ft 450 kts 320°
2026-04-29 20:09 9.39908 -56.26198 37893 ft 450 kts 320°
2026-04-29 20:10 9.44694 -56.30324 37909 ft 450 kts 320°
2026-04-29 20:10 9.49438 -56.34416 37891 ft 450 kts 320°
2026-04-29 20:11 9.54215 -56.38539 37898 ft 450 kts 320°
2026-04-29 20:11 9.58994 -56.42664 37899 ft 451 kts 320°
2026-04-29 20:12 9.63763 -56.46782 37894 ft 450 kts 320°
2026-04-29 20:12 9.68506 -56.50880 37891 ft 450 kts 320°
2026-04-29 20:13 9.73291 -56.55015 37901 ft 450 kts 320°
2026-04-29 20:13 9.78061 -56.59139 37900 ft 451 kts 319°
2026-04-29 20:14 9.82846 -56.63277 37899 ft 451 kts 319°
2026-04-29 20:14 9.87599 -56.67390 37899 ft 451 kts 319°
2026-04-29 20:15 9.92381 -56.71529 37902 ft 451 kts 319°
2026-04-29 20:15 9.97163 -56.75670 37898 ft 451 kts 319°
2026-04-29 20:16 10.01917 -56.79789 37900 ft 451 kts 319°
2026-04-29 20:16 10.06703 -56.83936 37898 ft 452 kts 319°
2026-04-29 20:17 10.11489 -56.88086 37890 ft 453 kts 319°
2026-04-29 20:17 10.16291 -56.92251 37900 ft 453 kts 319°
2026-04-29 20:18 10.21072 -56.96399 37893 ft 453 kts 319°
2026-04-29 20:18 10.25872 -57.00566 37893 ft 453 kts 319°
2026-04-29 20:19 10.30667 -57.04730 37894 ft 453 kts 319°
2026-04-29 20:19 10.35445 -57.08881 37904 ft 453 kts 319°
2026-04-29 20:20 10.40249 -57.13056 37904 ft 454 kts 319°
2026-04-29 20:20 10.45060 -57.17239 37903 ft 455 kts 319°
2026-04-29 20:21 10.49875 -57.21428 37898 ft 455 kts 319°
2026-04-29 20:21 10.54661 -57.25593 37905 ft 455 kts 319°
2026-04-29 20:22 10.59484 -57.29791 37899 ft 455 kts 319°
2026-04-29 20:22 10.64298 -57.33984 37899 ft 455 kts 319°
2026-04-29 20:23 10.69088 -57.38158 37896 ft 455 kts 319°
2026-04-29 20:23 10.73907 -57.42358 37892 ft 456 kts 319°
2026-04-29 20:24 10.78740 -57.46573 37908 ft 457 kts 319°
2026-04-29 20:24 10.83536 -57.50757 37901 ft 457 kts 318°
2026-04-29 20:25 10.88361 -57.54969 37900 ft 456 kts 318°
2026-04-29 20:25 10.93177 -57.59175 37913 ft 456 kts 318°
2026-04-29 20:26 10.97998 -57.63386 37905 ft 456 kts 318°
2026-04-29 20:26 11.02787 -57.67572 37922 ft 456 kts 318°
2026-04-29 20:27 11.06801 -57.71083 37905 ft 457 kts 318°
2026-04-29 20:27 11.12437 -57.76013 37904 ft 457 kts 318°
2026-04-29 20:28 11.17259 -57.80234 37913 ft 457 kts 318°
2026-04-29 20:28 11.22081 -57.84456 37908 ft 457 kts 318°
2026-04-29 20:29 11.26893 -57.88671 37911 ft 457 kts 318°
2026-04-29 20:29 11.31718 -57.92899 37917 ft 457 kts 318°
2026-04-29 20:30 11.36523 -57.97113 37912 ft 458 kts 318°
2026-04-29 20:30 11.41366 -58.01361 37911 ft 459 kts 318°
2026-04-29 20:31 11.46211 -58.05613 37911 ft 459 kts 318°
2026-04-29 20:31 11.51049 -58.09861 37912 ft 459 kts 318°
2026-04-29 20:32 11.55870 -58.14096 37911 ft 459 kts 318°
2026-04-29 20:32 11.59897 -58.17636 37910 ft 460 kts 318°
2026-04-29 20:33 11.65563 -58.22617 37912 ft 460 kts 318°
2026-04-29 20:33 11.70422 -58.26892 37913 ft 460 kts 318°
2026-04-29 20:34 11.75280 -58.31167 37918 ft 460 kts 318°
2026-04-29 20:34 11.80098 -58.35410 37917 ft 460 kts 318°
2026-04-29 20:35 11.84955 -58.39689 37920 ft 460 kts 318°
2026-04-29 20:35 11.89792 -58.43952 37919 ft 460 kts 317°
2026-04-29 20:36 11.94646 -58.48233 37922 ft 460 kts 317°
2026-04-29 20:36 11.99498 -58.52513 37919 ft 461 kts 317°
2026-04-29 20:37 12.04348 -58.56795 37916 ft 461 kts 317°
2026-04-29 20:37 12.09204 -58.61083 37922 ft 461 kts 317°
2026-04-29 20:38 12.14057 -58.65371 37919 ft 461 kts 317°
2026-04-29 20:38 12.18882 -58.69636 37919 ft 461 kts 317°
2026-04-29 20:39 12.23738 -58.73931 37924 ft 460 kts 317°
2026-04-29 20:39 12.28568 -58.78205 37922 ft 459 kts 317°
2026-04-29 20:40 12.33396 -58.82480 37919 ft 458 kts 317°
2026-04-29 20:40 12.38189 -58.86726 37922 ft 458 kts 317°
2026-04-29 20:41 12.43018 -58.91006 37922 ft 458 kts 317°
2026-04-29 20:41 12.47840 -58.95282 37922 ft 458 kts 317°
2026-04-29 20:42 12.52637 -58.99538 37925 ft 458 kts 317°
2026-04-29 20:42 12.57457 -59.03817 37922 ft 459 kts 317°
2026-04-29 20:43 12.62298 -59.08116 37925 ft 459 kts 317°
2026-04-29 20:43 12.67094 -59.12378 37925 ft 459 kts 317°
2026-04-29 20:44 12.71920 -59.16668 37926 ft 459 kts 317°
2026-04-29 20:44 12.76756 -59.20969 37925 ft 459 kts 317°
2026-04-29 20:45 12.81578 -59.25261 37925 ft 459 kts 317°
2026-04-29 20:45 12.86376 -59.29533 37925 ft 459 kts 317°
2026-04-29 20:46 12.91198 -59.33829 37923 ft 459 kts 317°
2026-04-29 20:46 12.96013 -59.38121 37915 ft 457 kts 317°
2026-04-29 20:47 12.99999 -59.41675 37912 ft 456 kts 317°
2026-04-29 20:47 13.04784 -59.45944 37911 ft 456 kts 317°
2026-04-29 20:48 13.10267 -59.51005 37912 ft 455 kts 314°
2026-04-29 20:48 13.13994 -59.54831 37911 ft 455 kts 314°
2026-04-29 20:49 13.18455 -59.59370 37909 ft 441 kts 314°
2026-04-29 20:49 13.22756 -59.63718 37746 ft 430 kts 314°
2026-04-29 20:50 13.24863 -59.65843 37691 ft 419 kts 314°
2026-04-29 20:50 13.26920 -59.67918 37483 ft 411 kts 314°
2026-04-29 20:50 13.28967 -59.69985 36904 ft 414 kts 313°
2026-04-29 20:50 13.31032 -59.72069 36303 ft 416 kts 313°
2026-04-29 20:51 13.33097 -59.74154 35715 ft 418 kts 314°
2026-04-29 20:51 13.35185 -59.76261 35094 ft 422 kts 314°
2026-04-29 20:51 13.37284 -59.78381 34428 ft 426 kts 314°
2026-04-29 20:51 13.39389 -59.80506 33750 ft 431 kts 314°
2026-04-29 20:52 13.41539 -59.82677 33021 ft 436 kts 314°
2026-04-29 20:52 13.43718 -59.84878 32301 ft 440 kts 314°
2026-04-29 20:52 13.45908 -59.87091 31562 ft 444 kts 314°
2026-04-29 20:52 13.48126 -59.89332 30812 ft 449 kts 314°
2026-04-29 20:53 13.50329 -59.91559 30216 ft 450 kts 314°
2026-04-29 20:53 13.52568 -59.93822 29648 ft 449 kts 314°
2026-04-29 20:53 13.54789 -59.96067 29103 ft 447 kts 314°
2026-04-29 20:53 13.57003 -59.98307 28552 ft 444 kts 314°
2026-04-29 20:54 13.61374 -60.02732 27469 ft 441 kts 314°
2026-04-29 20:54 13.63553 -60.04938 26947 ft 439 kts 314°
2026-04-29 20:54 13.65731 -60.07144 26414 ft 438 kts 314°
2026-04-29 20:55 13.67904 -60.09346 25856 ft 438 kts 314°
2026-04-29 20:55 13.70075 -60.11546 25320 ft 437 kts 313°
2026-04-29 20:55 13.72242 -60.13742 24767 ft 437 kts 313°
2026-04-29 20:55 13.74408 -60.15938 24217 ft 437 kts 314°
2026-04-29 20:56 13.76576 -60.18138 23672 ft 437 kts 314°
2026-04-29 20:56 13.78742 -60.20336 23063 ft 438 kts 314°
2026-04-29 20:56 13.80908 -60.22535 22484 ft 436 kts 314°
2026-04-29 20:56 13.83043 -60.24701 21931 ft 435 kts 314°
2026-04-29 20:57 13.85189 -60.26881 21396 ft 433 kts 314°
2026-04-29 20:57 13.87328 -60.29053 20852 ft 432 kts 314°
2026-04-29 20:57 13.89468 -60.31227 20308 ft 430 kts 314°
2026-04-29 20:57 13.91593 -60.33387 19770 ft 429 kts 314°
2026-04-29 20:58 13.93718 -60.35548 19217 ft 428 kts 314°
2026-04-29 20:58 13.95837 -60.37702 18686 ft 428 kts 315°
2026-04-29 20:58 13.97952 -60.39853 18128 ft 427 kts 315°
2026-04-29 20:58 14.00061 -60.41998 17545 ft 425 kts 314°
2026-04-29 20:59 14.02162 -60.44137 17005 ft 422 kts 315°
2026-04-29 20:59 14.04130 -60.46222 16485 ft 420 kts 310°
2026-04-29 20:59 14.05753 -60.48709 15908 ft 415 kts 299°
2026-04-29 20:59 14.07127 -60.51294 15375 ft 407 kts 298°
2026-04-29 21:00 14.08455 -60.53842 14856 ft 400 kts 298°
2026-04-29 21:00 14.09776 -60.56366 14352 ft 399 kts 298°
2026-04-29 21:00 14.11097 -60.58881 13846 ft 398 kts 299°
2026-04-29 21:00 14.12420 -60.61395 13297 ft 398 kts 299°
2026-04-29 21:01 14.13723 -60.63866 12793 ft 395 kts 299°
2026-04-29 21:01 14.15035 -60.66355 12279 ft 393 kts 299°
2026-04-29 21:01 14.16336 -60.68823 11797 ft 390 kts 299°
2026-04-29 21:01 14.17629 -60.71275 11318 ft 387 kts 299°
2026-04-29 21:02 14.18909 -60.73704 10846 ft 384 kts 299°
2026-04-29 21:02 14.20177 -60.76109 10546 ft 375 kts 299°
2026-04-29 21:02 14.21374 -60.78384 10429 ft 356 kts 299°
2026-04-29 21:02 14.22530 -60.80580 10296 ft 340 kts 298°
2026-04-29 21:03 14.23632 -60.82673 10147 ft 326 kts 299°
2026-04-29 21:03 14.24698 -60.84697 9985 ft 313 kts 299°
2026-04-29 21:03 14.25720 -60.86638 9782 ft 305 kts 299°
2026-04-29 21:03 14.26728 -60.88554 9451 ft 301 kts 298°
2026-04-29 21:04 14.27719 -60.90438 9139 ft 299 kts 298°
2026-04-29 21:04 14.28714 -60.92328 8790 ft 298 kts 298°
2026-04-29 21:04 14.29685 -60.94173 8504 ft 295 kts 298°
2026-04-29 21:04 14.30669 -60.96044 8211 ft 297 kts 298°
2026-04-29 21:05 14.31647 -60.97904 7964 ft 292 kts 298°
2026-04-29 21:05 14.32614 -60.99745 7664 ft 292 kts 297°
2026-04-29 21:05 14.33585 -61.01595 7221 ft 293 kts 297°
2026-04-29 21:05 14.34548 -61.03427 6751 ft 285 kts 297°
2026-04-29 21:06 14.35481 -61.05202 6274 ft 278 kts 297°
2026-04-29 21:06 14.36391 -61.06936 5775 ft 271 kts 297°
2026-04-29 21:06 14.37270 -61.08611 5300 ft 266 kts 298°
2026-04-29 21:06 14.38145 -61.10277 4816 ft 262 kts 298°
2026-04-29 21:07 14.39007 -61.11923 4372 ft 256 kts 298°
2026-04-29 21:07 14.40045 -61.13350 4028 ft 244 kts 321°
2026-04-29 21:07 14.41438 -61.14278 3704 ft 234 kts 336°
2026-04-29 21:07 14.42925 -61.14752 3417 ft 219 kts 359°
2026-04-29 21:08 14.44330 -61.14475 3221 ft 198 kts 33°
2026-04-29 21:08 14.45540 -61.13967 3148 ft 184 kts
2026-04-29 21:08 14.46803 -61.13905 2973 ft 179 kts
2026-04-29 21:08 14.48047 -61.13816 2830 ft 177 kts
2026-04-29 21:09 14.49255 -61.13666 2698 ft 173 kts 11°
2026-04-29 21:09 14.50438 -61.13474 2585 ft 172 kts 12°
2026-04-29 21:09 14.51607 -61.13261 2354 ft 173 kts 15°
2026-04-29 21:09 14.52777 -61.13007 2195 ft 168 kts 16°
2026-04-29 21:10 14.53898 -61.12690 2161 ft 168 kts 24°
2026-04-29 21:10 14.55011 -61.12255 1993 ft 170 kts 27°
2026-04-29 21:10 14.56051 -61.11689 1869 ft 162 kts 38°
2026-04-29 21:10 14.56862 -61.10986 1744 ft 146 kts 55°
2026-04-29 21:11 14.57353 -61.10112 1592 ft 138 kts 69°
2026-04-29 21:11 14.57701 -61.09192 1389 ft 139 kts 79°
2026-04-29 21:11 14.57893 -61.08216 1247 ft 138 kts 82°
2026-04-29 21:11 14.58027 -61.07234 1020 ft 137 kts 86°
2026-04-29 21:12 14.58136 -61.06270 858 ft 133 kts 85°
2026-04-29 21:12 14.58275 -61.05325 684 ft 133 kts 83°
2026-04-29 21:12 14.58427 -61.04377 536 ft 134 kts 81°
2026-04-29 21:12 14.58582 -61.03429 382 ft 138 kts 79°
2026-04-29 21:13 14.58742 -61.02448 158 ft 136 kts 80°
2026-04-29 21:13 14.58907 -61.01510 30 ft 126 kts 80°
2026-04-29 21:13 14.59024 -61.00796 31 ft 75 kts 80°
2026-04-29 21:13 14.59085 -61.00440 19 ft 33 kts 80°
2026-04-29 21:14 14.59121 -61.00232 22 ft 27 kts 80°
2026-04-29 21:14 14.59143 -61.00102 21 ft 11 kts 80°
2026-04-29 21:14 14.59163 -61.00035 27 ft 8 kts 48°
2026-04-29 21:14 14.59207 -61.00026 27 ft 6 kts 352°
2026-04-29 21:15 14.59252 -61.00034 27 ft 8 kts 351°
2026-04-29 21:15 14.59310 -61.00043 25 ft 9 kts 353°
2026-04-29 21:15 14.59355 -61.00006 26 ft 9 kts 72°
2026-04-29 21:15 14.59368 -60.99942 25 ft 8 kts 74°
2026-04-29 21:16 14.59408 -60.99919 27 ft 7 kts
2026-04-29 21:16 14.59439 -60.99924 26 ft 1 kts 352°
2026-04-29 21:18 14.59436 -60.99977 22 ft 0 kts